Retour au catalogue

CZ-6A DEB

ActifPO
NORAD 55208·DEBRIS·🇨🇳 China

Lancé Nov 11, 2022 depuis Taiyuan Satellite Launch Center

Loading…

Prochains Passages (prochaines 24 heures)

TLE

FraisSource: Space-Track

Époque: Sep 14, 2026, 04:19 UTC

1 55208U 22151VZ  26257.17997189  .00026022  00000-0  21990-2 0  9999
2 55208  98.6232 341.8831 0038122 322.6228  37.2340 14.97495053198814

Suivez CZ-6A DEB en temps réel avec AllMySat

Download on the App Store